Location: Peebles
(55.6412°N, 3.1714°W)
Time: 09:06:30
(UTC+01:00)

FENGYUN 1C DEB - Pass Details

Date: 04 July 2022
Orbit: 749 x 887 km, 98.1° (Epoch: 08 August)

Event Time Altitude Azimuth Distance (km) Brightness Sun altitude
Rises 01:24:01 0° 20° (NNE) 3,510 ? -11.5°
Reaches altitude 10° 01:26:51 10° 33° (NNE) 2,563 ? -11.4°
Maximum altitude 01:31:38 27° 89° (E) 1,642 ? -11.4°
Drops below altitude 10° 01:36:20 10° 146° (SE) 2,513 ? -11.4°
Enters shadow 01:36:46 - 149° (SSE) 2,653 ? -11.4°
